When you browse on this site, cookies collect data to enhance your experience and personalize the content and advertising you see.
Visit our Privacy Policy to learn more. By continuing to use the site, you agree to this use of cookies and data.
  • Em Portugal
  • Lista de países
  • Para 7 dias
  • Temperatura da água
  • Mapas de satélite
  • Mapa do tempo
  • Widgets de tempo
  • user-avatar
    Iniciar Sessão

    Previsão horária em Zandzhan

    Hoje, 19 Janeiro, Sábado

    Tempo Temperatura Precipitação Vento Pressão Humidade
    00:00 -9°C° 0 mm 1 m/s 611 mmHg 88%
    01:00 -9°C° 0 mm 1 m/s 611 mmHg 87%
    02:00 -9°C° 0 mm 1 m/s 611 mmHg 87%
    03:00 -9°C° 0 mm 1 m/s 611 mmHg 85%
    04:00 -9°C° 0 mm 1 m/s 611 mmHg 86%
    05:00 -9°C° 0 mm 1 m/s 611 mmHg 86%
    06:00 -9°C° 0 mm 1 m/s 611 mmHg 87%
    07:00 -8°C° 0 mm 1 m/s 612 mmHg 85%
    08:00 -7°C° 0 mm 1 m/s 612 mmHg 84%
    09:00 -6°C° 0 mm 0 m/s 612 mmHg 83%
    10:00 -4°C° 0 mm 1 m/s 613 mmHg 77%
    11:00 -3°C° 0 mm 1 m/s 613 mmHg 71%
    12:00 -2°C° 0 mm 1 m/s 613 mmHg 66%
    13:00 -2°C° 0 mm 1 m/s 612 mmHg 67%
    14:00 -2°C° 0 mm 1 m/s 612 mmHg 68%
    15:00 -1°C° 0 mm 1 m/s 612 mmHg 69%
    16:00 -3°C° 0 mm 1 m/s 612 mmHg 69%
    17:00 -6°C° 0 mm 1 m/s 611 mmHg 69%
    18:00 -8°C° 0 mm 0 m/s 611 mmHg 69%
    19:00 -8°C° 0 mm 0 m/s 611 mmHg 70%
    20:00 -8°C° 0 mm 0 m/s 611 mmHg 71%
    21:00 -9°C° 0 mm 0 m/s 611 mmHg 72%
    22:00 -9°C° 0 mm 0 m/s 611 mmHg 73%
    23:00 -9°C° 0 mm 0 m/s 612 mmHg 75%

    Amanhã, 20 Janeiro, Domingo

    Tempo Temperatura Precipitação Vento Pressão Humidade
    00:00 -9°C° 0 mm 0 m/s 612 mmHg 76%
    01:00 -9°C° 0 mm 0 m/s 612 mmHg 77%
    02:00 -10°C° 0 mm 0 m/s 612 mmHg 77%
    03:00 -10°C° 0 mm 0 m/s 612 mmHg 78%
    04:00 -10°C° 0 mm 0 m/s 612 mmHg 78%
    05:00 -10°C° 0 mm 0 m/s 612 mmHg 77%
    06:00 -10°C° 0 mm 0 m/s 612 mmHg 77%
    07:00 -9°C° 0 mm 1 m/s 613 mmHg 75%
    08:00 -8°C° 0 mm 1 m/s 613 mmHg 74%
    09:00 -7°C° 0 mm 1 m/s 614 mmHg 72%
    10:00 -4°C° 0 mm 1 m/s 614 mmHg 67%
    11:00 -3°C° 0 mm 1 m/s 614 mmHg 62%
    12:00 -2°C° 0 mm 1 m/s 614 mmHg 57%
    13:00 -2°C° 0 mm 1 m/s 614 mmHg 58%
    14:00 -1°C° 0 mm 1 m/s 614 mmHg 60%
    15:00 -1°C° 0 mm 1 m/s 614 mmHg 62%
    16:00 -3°C° 0 mm 1 m/s 613 mmHg 62%
    17:00 -6°C° 0 mm 1 m/s 613 mmHg 63%
    18:00 -7°C° 0 mm 1 m/s 613 mmHg 63%
    19:00 -8°C° 0 mm 1 m/s 613 mmHg 62%
    20:00 -8°C° 0 mm 1 m/s 613 mmHg 60%
    21:00 -8°C° 0 mm 1 m/s 613 mmHg 59%
    22:00 -8°C° 0 mm 1 m/s 613 mmHg 58%
    23:00 -9°C° 0 mm 1 m/s 613 mmHg 56%

    Depois de amanhã, 21 Janeiro, Segunda-feira

    Tempo Temperatura Precipitação Vento Pressão Humidade
    00:00 -9°C° 0 mm 1 m/s 613 mmHg 55%
    01:00 -9°C° 0 mm 1 m/s 613 mmHg 54%
    02:00 -9°C° 0 mm 1 m/s 613 mmHg 54%
    03:00 -9°C° 0 mm 1 m/s 613 mmHg 53%
    04:00 -9°C° 0 mm 1 m/s 613 mmHg 54%
    05:00 -9°C° 0 mm 1 m/s 613 mmHg 54%
    06:00 -9°C° 0 mm 1 m/s 612 mmHg 55%
    07:00 -8°C° 0 mm 1 m/s 613 mmHg 57%
    08:00 -7°C° 0 mm 1 m/s 613 mmHg 59%
    09:00 -6°C° 0 mm 1 m/s 614 mmHg 61%
    10:00 -4°C° 0 mm 1 m/s 614 mmHg 59%
    11:00 -2°C° 0 mm 1 m/s 614 mmHg 57%
    12:00 -3°C° 0 mm 2 m/s 614 mmHg 55%
    13:00 -3°C° 0 mm 2 m/s 613 mmHg 58%
    14:00 -2°C° 0 mm 2 m/s 613 mmHg 61%
    15:00 -2°C° 0 mm 2 m/s 612 mmHg 64%
    16:00 -3°C° 0 mm 2 m/s 612 mmHg 66%
    17:00 -4°C° 0 mm 2 m/s 612 mmHg 68%
    18:00 -5°C° 0 mm 2 m/s 612 mmHg 70%
    19:00 -5°C° 0 mm 2 m/s 612 mmHg 70%
    20:00 -4°C° 0 mm 1 m/s 612 mmHg 71%
    21:00 -4°C° 0 mm 1 m/s 611 mmHg 71%
    22:00 -6°C° 0 mm 1 m/s 611 mmHg 70%
    23:00 -6°C° 0 mm 1 m/s 611 mmHg 69%

    22 Janeiro, Terça-feira

    Tempo Temperatura Precipitação Vento Pressão Humidade
    00:00 -7°C° 0 mm 1 m/s 610 mmHg 67%
    01:00 -7°C° 0 mm 1 m/s 610 mmHg 67%
    02:00 -7°C° 0 mm 1 m/s 610 mmHg 67%
    03:00 -7°C° 0 mm 1 m/s 610 mmHg 67%
    04:00 -7°C° 0 mm 1 m/s 610 mmHg 67%
    05:00 -8°C° 0 mm 1 m/s 610 mmHg 67%
    06:00 -8°C° 0 mm 1 m/s 610 mmHg 68%
    07:00 -7°C° 0 mm 1 m/s 611 mmHg 68%
    08:00 -6°C° 0 mm 1 m/s 611 mmHg 68%
    09:00 -4°C° 0 mm 1 m/s 612 mmHg 68%
    10:00 -3°C° 0 mm 1 m/s 612 mmHg 64%
    11:00 -1°C° 0 mm 1 m/s 612 mmHg 61%
    12:00 -2°C° 0 mm 2 m/s 612 mmHg 57%
    13:00 0°C° 0 mm 1 m/s 612 mmHg 60%
    14:00 0°C° 0 mm 1 m/s 611 mmHg 62%
    15:00 +1°C° 0 mm 1 m/s 611 mmHg 65%
    16:00 -2°C° 0 mm 0 m/s 611 mmHg 66%
    17:00 -4°C° 0 mm 0 m/s 610 mmHg 66%
    18:00 -6°C° 0 mm 0 m/s 610 mmHg 67%
    19:00 -6°C° 0 mm 0 m/s 610 mmHg 68%
    20:00 -7°C° 0 mm 0 m/s 610 mmHg 69%
    21:00 -7°C° 0 mm 0 m/s 611 mmHg 70%
    22:00 -7°C° 0 mm 0 m/s 611 mmHg 70%
    23:00 -7°C° 0 mm 1 m/s 611 mmHg 70%

    23 Janeiro, Quarta-feira

    Tempo Temperatura Precipitação Vento Pressão Humidade
    00:00 -7°C° 0 mm 1 m/s 611 mmHg 70%
    01:00 -7°C° 0 mm 1 m/s 610 mmHg 71%
    02:00 -7°C° 0 mm 1 m/s 610 mmHg 71%
    03:00 -8°C° 0 mm 1 m/s 610 mmHg 71%
    04:00 -8°C° 0 mm 1 m/s 610 mmHg 73%
    05:00 -8°C° 0 mm 1 m/s 610 mmHg 74%
    06:00 -8°C° 0 mm 1 m/s 610 mmHg 75%
    07:00 -7°C° 0 mm 1 m/s 611 mmHg 77%
    08:00 -7°C° 0 mm 2 m/s 612 mmHg 78%
    09:00 -5°C° 0 mm 2 m/s 612 mmHg 80%
    10:00 -4°C° 0 mm 2 m/s 612 mmHg 77%
    11:00 -3°C° 0 mm 2 m/s 612 mmHg 74%
    12:00 -1°C° 0 mm 2 m/s 612 mmHg 72%
    13:00 -1°C° 0 mm 2 m/s 612 mmHg 71%
    14:00 -1°C° 0 mm 2 m/s 612 mmHg 70%
    15:00 -1°C° 0 mm 2 m/s 612 mmHg 69%
    16:00 0°C° 0 mm 1 m/s 612 mmHg 69%
    17:00 -2°C° 0 mm 1 m/s 612 mmHg 69%
    18:00 -3°C° 0 mm 1 m/s 611 mmHg 69%
    19:00 -3°C° 0 mm 1 m/s 612 mmHg 70%
    20:00 -4°C° 0 mm 1 m/s 612 mmHg 71%
    21:00 -4°C° 0 mm 1 m/s 612 mmHg 71%
    22:00 -4°C° 0 mm 1 m/s 612 mmHg 72%
    23:00 -6°C° 0 mm 1 m/s 612 mmHg 73%

    24 Janeiro, Quinta-feira

    Tempo Temperatura Precipitação Vento Pressão Humidade
    00:00 -6°C° 0 mm 1 m/s 612 mmHg 74%
    01:00 -6°C° 0 mm 1 m/s 612 mmHg 75%
    02:00 -6°C° 0 mm 1 m/s 612 mmHg 77%
    03:00 -6°C° 0 mm 1 m/s 612 mmHg 78%
    04:00 -6°C° 0 mm 1 m/s 612 mmHg 78%
    05:00 -7°C° 0 mm 1 m/s 612 mmHg 79%
    06:00 -7°C° 0 mm 1 m/s 611 mmHg 80%
    07:00 -7°C° 0 mm 2 m/s 612 mmHg 79%
    08:00 -6°C° 0 mm 2 m/s 613 mmHg 79%
    09:00 -5°C° 0 mm 2 m/s 613 mmHg 79%
    10:00 -3°C° 0 mm 2 m/s 613 mmHg 75%
    11:00 -2°C° 0 mm 2 m/s 613 mmHg 72%
    12:00 -1°C° 0 mm 2 m/s 613 mmHg 68%
    13:00 +1°C° 0 mm 2 m/s 613 mmHg 67%
    14:00 +1°C° 0 mm 2 m/s 612 mmHg 66%
    15:00 +1°C° 0 mm 2 m/s 612 mmHg 65%
    16:00 -1°C° 0 mm 2 m/s 612 mmHg 64%
    17:00 -2°C° 0 mm 2 m/s 612 mmHg 62%
    18:00 -3°C° 0 mm 2 m/s 612 mmHg 61%
    19:00 -3°C° 0 mm 2 m/s 612 mmHg 60%
    20:00 -4°C° 0 mm 2 m/s 612 mmHg 60%
    21:00 -5°C° 0 mm 2 m/s 611 mmHg 59%
    22:00 -5°C° 0 mm 2 m/s 611 mmHg 60%
    23:00 -5°C° 0 mm 2 m/s 611 mmHg 61%
    Mostrar mais